EW9366 Weather Reports


Display with metric or nautical units.
time (UTC)temp
F
wind
direction
speed
MPH
gust
MPH
rain 1hr
in
rain 24hr
in
rain mn
in
humidity
%
barometer
mb
20260508211342 80 210 1.0 3.0 0.00 0.00 0.00 51 1008.3
20260508210815 80 193 1.0 3.0 0.00 0.00 0.00 49 1008.3
20260508210313 80 208 1.0 4.0 0.00 0.00 0.00 51 1008.4
20260508210244 80 227 1.0 4.0 0.00 0.00 0.00 53 1008.4
20260508205306 80 160 1.0 4.0 0.00 0.00 0.00 49 1008.5
20260508204802 80 200 1.0 5.0 0.00 0.00 0.00 52 1008.7
20260508204237 80 198 1.0 5.0 0.00 0.00 0.00 50 1008.5
20260508204149 80 217 1.0 4.0 0.00 0.00 0.00 49 1008.6
20260508203141 80 228 2.0 5.0 0.00 0.00 0.00 49 1008.6
20260508202639 80 203 1.0 5.0 0.00 0.00 0.00 48 1008.7
20260508202120 81 206 1.0 4.0 0.00 0.00 0.00 52 1008.7
20260508201623 80 148 1.0 4.0 0.00 0.00 0.00 51 1008.8
20260508201055 81 205 1.0 4.0 0.00 0.00 0.00 48 1008.8
20260508200552 81 146 1.0 3.0 0.00 0.00 0.00 46 1009.0
20260508200025 81 144 1.0 4.0 0.00 0.00 0.00 48 1009.1
20260508195522 81 190 1.0 4.0 0.00 0.00 0.00 49 1009.1
20260508194954 81 248 1.0 2.0 0.00 0.00 0.00 52 1009.2
20260508194428 80 190 1.0 3.0 0.00 0.00 0.00 52 1009.4
20260508193923 80 201 1.0 3.0 0.00 0.00 0.00 49 1009.5
20260508193918 80 176 1.0 5.0 0.00 0.00 0.00 50 1009.4
20260508192850 80 213 1.0 5.0 0.00 0.00 0.00 48 1009.4
20260508192326 80 121 1.0 4.0 0.00 0.00 0.00 51 1009.4
20260508191759 80 192 1.0 4.0 0.00 0.00 0.00 48 1009.6
20260508191231 80 168 1.0 4.0 0.00 0.00 0.00 48 1009.7
20260508190729 80 210 1.0 3.0 0.00 0.00 0.00 49 1009.7
20260508190706 80 212 1.0 3.0 0.00 0.00 0.00 48 1009.8
20260508185719 80 150 1.0 4.0 0.00 0.00 0.00 48 1009.9
20260508185206 80 131 1.0 4.0 0.00 0.00 0.00 49 1009.9
20260508184709 79 178 1.0 4.0 0.00 0.00 0.00 50 1010.0
20260508184139 79 140 1.0 3.0 0.00 0.00 0.00 48 1010.2
20260508183625 78 140 1.0 4.0 0.00 0.00 0.00 52 1010.2
20260508183602 78 148 1.0 4.0 0.00 0.00 0.00 50 1010.4
20260508183102 78 180 1.0 3.0 0.00 0.00 0.00 49 1010.5
20260508182055 78 134 1.0 4.0 0.00 0.00 0.00 53 1010.6
20260508181548 78 134 1.0 4.0 0.00 0.00 0.00 51 1010.6
20260508181022 79 117 1.0 5.0 0.00 0.00 0.00 51 1010.7
20260508181002 79 153 1.0 5.0 0.00 0.00 0.00 49 1010.9
20260508180013 79 191 1.0 3.0 0.00 0.00 0.00 50 1011.0
20260508175509 79 159 0.0 3.0 0.00 0.00 0.00 55 1011.2
20260508175006 79 202 1.0 3.0 0.00 0.00 0.00 56 1011.3
20260508174439 78 199 1.0 5.0 0.00 0.00 0.00 56 1011.4
20260508173935 78 153 1.0 5.0 0.00 0.00 0.00 57 1011.5
20260508173408 78 124 1.0 3.0 0.00 0.00 0.00 54 1011.5
20260508172855 78 212 1.0 3.0 0.00 0.00 0.00 56 1011.5
20260508172357 77 169 1.0 5.0 0.00 0.00 0.00 54 1011.8
20260508171841 77 134 1.0 5.0 0.00 0.00 0.00 56 1011.8
20260508171823 77 186 1.0 7.0 0.00 0.00 0.00 54 1012.0
20260508170839 77 181 1.0 7.0 0.00 0.00 0.00 55 1012.0
20260508170337 77 143 1.0 5.0 0.00 0.00 0.00 58 1012.1
20260508165815 77 209 1.0 5.0 0.00 0.00 0.00 56 1012.2
20260508165240 77 206 1.0 6.0 0.00 0.00 0.00 55 1012.3
20260508164733 77 114 1.0 6.0 0.00 0.00 0.00 55 1012.5
20260508164230 77 184 1.0 5.0 0.00 0.00 0.00 58 1012.5
20260508163701 76 172 1.0 5.0 0.00 0.00 0.00 58 1012.7
20260508163133 76 210 2.0 9.0 0.00 0.00 0.00 56 1012.7
20260508162624 77 117 1.0 9.0 0.00 0.00 0.00 56 1012.7
20260508162546 77 156 1.0 4.0 0.00 0.00 0.00 59 1012.8
20260508161600 76 200 1.0 6.0 0.00 0.00 0.00 61 1012.8
20260508161101 76 190 1.0 6.0 0.00 0.00 0.00 56 1012.9
20260508160559 76 198 1.0 2.0 0.00 0.00 0.00 62 1012.9
20260508160047 75 202 1.0 3.0 0.00 0.00 0.00 60 1013.0
20260508160042 75 214 1.0 3.0 0.00 0.00 0.00 58 1013.0
20260508155045 74 153 1.0 5.0 0.00 0.00 0.00 59 1013.1
20260508154543 74 207 1.0 5.0 0.00 0.00 0.00 60 1013.1
20260508154021 74 175 1.0 4.0 0.00 0.00 0.00 63 1013.2
20260508153446 73 143 1.0 4.0 0.00 0.00 0.00 61 1013.3
20260508152935 73 134 1.0 4.0 0.00 0.00 0.00 62 1013.3
20260508152433 73 207 1.0 4.0 0.00 0.00 0.00 61 1013.4
20260508151906 73 178 1.0 7.0 0.00 0.00 0.00 61 1013.4
20260508151403 73 210 1.0 7.0 0.00 0.00 0.00 61 1013.4
20260508150859 73 159 1.0 4.0 0.00 0.00 0.00 65 1013.4
20260508150359 73 203 1.0 4.0 0.00 0.00 0.00 65 1013.6
20260508145857 72 202 1.0 4.0 0.00 0.00 0.00 65 1013.7
20260508145345 72 158 1.0 4.0 0.00 0.00 0.00 66 1013.7
20260508145329 71 198 1.0 3.0 0.00 0.00 0.00 66 1013.8
20260508144315 71 212 1.0 3.0 0.00 0.00 0.00 66 1013.7
20260508143809 71 221 1.0 3.0 0.00 0.00 0.00 67 1013.7
20260508143245 71 190 1.0 3.0 0.00 0.00 0.00 66 1013.8
20260508143204 70 204 1.0 6.0 0.00 0.00 0.00 71 1013.7
20260508142215 69 198 1.0 6.0 0.00 0.00 0.00 66 1013.6
20260508142125 69 150 1.0 5.0 0.00 0.00 0.00 68 1013.7
20260508141143 69 192 1.0 5.0 0.00 0.00 0.00 67 1013.6
20260508140617 69 146 0.0 3.0 0.00 0.00 0.00 71 1013.8
20260508140047 68 193 1.0 3.0 0.00 0.00 0.00 70 1013.7
20260508135522 67 161 1.0 3.0 0.00 0.00 0.00 71 1013.8
20260508135019 66 141 1.0 3.0 0.00 0.00 0.00 73 1013.7
20260508134515 66 197 1.0 4.0 0.00 0.00 0.00 74 1013.8
20260508134014 65 165 1.0 4.0 0.00 0.00 0.00 74 1013.8
20260508133950 65 207 1.0 3.0 0.00 0.00 0.00 75 1013.8
20260508133011 64 198 1.0 2.0 0.00 0.00 0.00 73 1013.9
20260508132946 64 172 0.0 2.0 0.00 0.00 0.00 74 1013.9
20260508131941 63 141 1.0 2.0 0.00 0.00 0.00 74 1014.0
20260508131417 63 155 0.0 2.0 0.00 0.00 0.00 74 1014.1
20260508130850 62 138 0.0 1.0 0.00 0.00 0.00 75 1014.0
20260508130346 62 182 0.0 2.0 0.00 0.00 0.00 76 1014.0
20260508125839 61 216 1.0 1.0 0.00 0.00 0.00 76 1013.9
20260508125336 60 182 1.0 2.0 0.00 0.00 0.00 76 1013.8
20260508125320 59 146 0.0 2.0 0.00 0.00 0.00 77 1013.9
20260508124317 59 149 0.0 1.0 0.00 0.00 0.00 78 1013.8
20260508124306 58 154 0.0 1.0 0.00 0.00 0.00 79 1013.8
20260508123315 57 150 0.0 2.0 0.00 0.00 0.00 80 1013.8
20260508122814 57 155 0.0 2.0 0.00 0.00 0.00 80 1013.8
20260508122315 56 145 0.0 1.0 0.00 0.00 0.00 82 1013.8
20260508121815 55 151 0.0 1.0 0.00 0.00 0.00 84 1013.8
20260508121728 54 175 0.0 1.0 0.00 0.00 0.00 85 1013.9
20260508121231 53 193 0.0 0.0 0.00 0.00 0.00 87 1013.8
20260508120240 52 193 0.0 0.0 0.00 0.00 0.00 89 1013.9
20260508115737 51 193 0.0 0.0 0.00 0.00 0.00 90 1013.7
20260508115235 49 194 0.0 0.0 0.00 0.00 0.00 91 1013.8
20260508114707 48 198 0.0 0.0 0.00 0.00 0.00 92 1013.7
20260508114205 47 198 0.0 0.0 0.00 0.00 0.00 92 1013.8
20260508114146 46 198 0.0 0.0 0.00 0.00 0.00 92 1013.7
20260508113648 45 198 0.0 0.0 0.00 0.00 0.00 91 1013.6
20260508112641 45 198 0.0 0.0 0.00 0.00 0.00 91 1013.7
20260508112143 45 198 0.0 0.0 0.00 0.00 0.00 91 1013.6
20260508112127 45 198 0.0 0.0 0.00 0.00 0.00 91 1013.5
20260508111128 46 198 0.0 0.0 0.00 0.00 0.00 91 1013.4
20260508110604 45 198 0.0 0.0 0.00 0.00 0.00 92 1013.4
20260508110036 45 198 0.0 0.0 0.00 0.00 0.00 92 1013.4
20260508105533 45 198 0.0 0.0 0.00 0.00 0.00 92 1013.3
20260508105020 45 198 0.0 0.0 0.00 0.00 0.00 91 1013.2
20260508104522 45 198 0.0 0.0 0.00 0.00 0.00 91 1013.2
20260508104018 45 198 0.0 0.0 0.00 0.00 0.00 91 1013.2
20260508103452 45 198 0.0 0.0 0.00 0.00 0.00 91 1013.2
20260508102951 45 198 0.0 0.0 0.00 0.00 0.00 91 1013.2
20260508102933 45 198 0.0 0.0 0.00 0.00 0.00 90 1013.1
20260508101947 45 198 0.0 0.0 0.00 0.00 0.00 90 1013.1
20260508101420 45 198 0.0 0.0 0.00 0.00 0.00 90 1013.1
20260508100916 45 198 0.0 0.0 0.00 0.00 0.00 90 1013.1
20260508100349 45 198 0.0 0.0 0.00 0.00 0.00 89 1012.9
20260508095847 45 198 0.0 0.0 0.00 0.00 0.00 89 1012.9
20260508095804 45 198 0.0 0.0 0.00 0.00 0.00 89 1012.9
20260508094815 45 198 0.0 0.0 0.00 0.00 0.00 88 1012.9
20260508094313 45 198 0.0 0.0 0.00 0.00 0.00 88 1013.0
20260508093746 46 198 0.0 0.0 0.00 0.00 0.00 88 1012.9
20260508093244 46 198 0.0 0.0 0.00 0.00 0.00 88 1012.9
20260508093204 46 198 0.0 0.0 0.00 0.00 0.00 88 1012.9
20260508092213 47 198 0.0 0.0 0.00 0.00 0.00 89 1012.8
20260508091706 47 198 0.0 0.0 0.00 0.00 0.00 89 1012.9
20260508091202 47 198 0.0 0.0 0.00 0.00 0.00 89 1012.9
20260508090639 47 198 0.0 0.0 0.00 0.00 0.00 89 1012.8
20260508090122 47 198 0.0 0.0 0.00 0.00 0.00 89 1012.8
20260508085621 47 198 0.0 0.0 0.00 0.00 0.00 89 1012.9
20260508085122 46 198 0.0 0.0 0.00 0.00 0.00 89 1012.9
20260508084606 46 198 0.0 0.0 0.00 0.00 0.00 89 1012.9
20260508084109 46 198 0.0 0.0 0.00 0.00 0.00 89 1013.0
20260508083542 46 198 0.0 0.0 0.00 0.00 0.00 88 1013.0
20260508083037 46 198 0.0 0.0 0.00 0.00 0.00 88 1013.1
20260508082533 46 198 0.0 0.0 0.00 0.00 0.00 87 1013.1
20260508082008 46 198 0.0 0.0 0.00 0.00 0.00 87 1013.1
20260508081443 47 198 0.0 0.0 0.00 0.00 0.00 87 1013.2
20260508080926 47 198 0.0 0.0 0.00 0.00 0.00 86 1013.2
20260508080424 47 198 0.0 0.0 0.00 0.00 0.00 87 1013.3
20260508075925 47 198 0.0 0.0 0.00 0.00 0.00 87 1013.4
20260508075423 48 198 0.0 0.0 0.00 0.00 0.00 87 1013.4
20260508074916 48 198 0.0 0.0 0.00 0.00 0.00 86 1013.5
20260508074353 48 198 0.0 0.0 0.00 0.00 0.00 86 1013.5
20260508073837 48 198 0.0 0.0 0.00 0.00 0.00 85 1013.5
20260508073310 48 198 0.0 0.0 0.00 0.00 0.00 85 1013.4
20260508072807 49 198 0.0 0.0 0.00 0.00 0.00 84 1013.5
20260508072247 49 198 0.0 0.0 0.00 0.00 0.00 84 1013.5
20260508071747 49 198 0.0 0.0 0.00 0.00 0.00 84 1013.5
20260508071220 50 198 0.0 0.0 0.00 0.00 0.00 84 1013.5
20260508071152 50 198 0.0 0.0 0.00 0.00 0.00 84 1013.6
20260508070209 50 199 0.0 0.0 0.00 0.00 0.00 84 1013.7
20260508065707 50 150 0.0 1.0 0.00 0.00 0.00 84 1013.8
20260508065154 50 148 0.0 1.0 0.00 0.00 0.00 84 1013.8
20260508064637 50 161 0.0 0.0 0.00 0.00 0.00 84 1013.9
20260508064135 50 161 0.0 0.0 0.00 0.00 0.00 84 1014.1
20260508063624 50 161 0.0 0.0 0.00 0.00 0.00 84 1014.0
20260508063123 50 161 0.0 0.0 0.00 0.00 0.00 85 1014.1
20260508062558 49 201 0.0 1.0 0.00 0.00 0.00 85 1014.2
20260508062055 49 210 0.0 1.0 0.00 0.00 0.00 85 1014.3
20260508061555 49 212 0.0 1.0 0.00 0.00 0.00 85 1014.5
20260508061030 49 212 0.0 0.0 0.00 0.00 0.00 85 1014.3
20260508060505 49 212 0.0 0.0 0.00 0.00 0.00 85 1014.3
20260508060002 49 213 0.0 0.0 0.00 0.00 0.00 85 1014.2
20260508055459 49 214 0.0 0.0 0.00 0.00 0.00 85 1014.3
20260508054958 49 214 0.0 0.0 0.00 0.00 0.00 85 1014.5
20260508054454 49 214 0.0 0.0 0.00 0.00 0.00 85 1014.5
20260508053927 49 214 0.0 0.0 0.00 0.00 0.00 85 1014.5
20260508053357 49 214 0.0 0.0 0.00 0.00 0.00 85 1014.5
20260508053321 49 214 0.0 0.0 0.00 0.00 0.00 85 1014.5
20260508052817 49 214 0.0 0.0 0.00 0.00 0.00 85 1014.6
20260508051829 49 213 0.0 0.0 0.00 0.00 0.00 85 1014.6
20260508051810 49 214 0.0 0.0 0.00 0.00 0.00 85 1014.6
20260508050816 49 214 0.0 0.0 0.00 0.00 0.00 85 1014.6
20260508050318 49 214 0.0 0.0 0.00 0.00 0.00 85 1014.7
20260508050240 49 214 0.0 0.0 0.00 0.00 0.00 85 1014.6
20260508045225 49 213 0.0 0.0 0.00 0.00 0.00 85 1014.7
20260508044723 49 213 0.0 0.0 0.00 0.00 0.00 85 1014.7
20260508044203 49 214 0.0 0.0 0.00 0.00 0.00 85 1014.7
20260508043705 49 214 0.0 0.0 0.00 0.00 0.00 84 1014.8
20260508043655 49 214 0.0 0.0 0.00 0.00 0.00 84 1014.8
20260508042632 49 214 0.0 0.0 0.00 0.00 0.00 84 1014.8
20260508042109 49 214 0.0 0.0 0.00 0.00 0.00 83 1014.7
20260508041605 49 214 0.0 0.0 0.00 0.00 0.00 83 1014.8
20260508041103 49 214 0.0 0.0 0.00 0.00 0.00 82 1014.8
20260508040535 50 214 0.0 0.0 0.00 0.00 0.00 82 1014.9
20260508040034 50 214 0.0 0.0 0.00 0.00 0.00 83 1015.0
20260508035507 50 214 0.0 0.0 0.00 0.00 0.00 81 1015.1
20260508035004 50 213 0.0 0.0 0.00 0.00 0.00 81 1015.0
20260508034438 51 214 0.0 0.0 0.00 0.00 0.00 81 1015.0
20260508033912 51 213 0.0 0.0 0.00 0.00 0.00 80 1015.1
20260508033349 51 213 0.0 0.0 0.00 0.00 0.00 79 1015.0
20260508032821 51 214 0.0 0.0 0.00 0.00 0.00 77 1014.9
20260508032318 51 214 0.0 0.0 0.00 0.00 0.00 77 1014.9
20260508031751 52 214 0.0 0.0 0.00 0.00 0.00 78 1014.9
20260508031249 51 214 0.0 0.0 0.00 0.00 0.00 76 1014.9
20260508030732 51 214 0.0 0.0 0.00 0.00 0.00 76 1014.9
20260508030234 52 214 0.0 0.0 0.00 0.00 0.00 76 1014.8
20260508025730 52 214 0.0 0.0 0.00 0.00 0.00 75 1014.8
20260508025233 52 214 0.0 0.0 0.00 0.00 0.00 74 1014.9
20260508024706 52 214 0.0 0.0 0.00 0.00 0.00 74 1014.7
20260508024202 53 213 0.0 0.0 0.00 0.00 0.00 73 1014.8
20260508024128 53 214 0.0 0.0 0.00 0.00 0.00 73 1014.8
20260508023625 53 214 0.0 0.0 0.00 0.00 0.00 73 1014.6
20260508022608 54 214 0.0 0.0 0.00 0.00 0.00 73 1014.7
20260508022056 54 214 0.0 0.0 0.00 0.00 0.00 71 1014.6
20260508021558 55 213 0.0 0.0 0.00 0.00 0.00 71 1014.7
20260508021532 55 214 0.0 0.0 0.00 0.00 0.00 72 1014.6
20260508020547 55 214 0.0 0.0 0.00 0.00 0.00 71 1014.6
20260508020529 55 213 0.0 0.0 0.00 0.00 0.00 70 1014.5
20260508015538 55 214 0.0 0.0 0.00 0.00 0.00 71 1014.3
20260508015030 56 213 0.0 0.0 0.00 0.00 0.00 68 1014.2
20260508014511 56 214 0.0 0.0 0.00 0.00 0.00 67 1014.2
20260508014008 57 214 0.0 0.0 0.00 0.00 0.00 65 1014.0
20260508013509 57 214 0.0 0.0 0.00 0.00 0.00 65 1013.8
20260508012959 58 214 0.0 0.0 0.00 0.00 0.00 64 1013.8
20260508012456 59 213 0.0 0.0 0.00 0.00 0.00 61 1013.7
20260508012436 60 214 0.0 0.0 0.00 0.00 0.00 61 1013.7
20260508011446 61 213 0.0 0.0 0.00 0.00 0.00 60 1013.6
20260508010918 62 213 0.0 0.0 0.00 0.00 0.00 59 1013.6
20260508010413 64 213 0.0 0.0 0.00 0.00 0.00 56 1013.5
20260508005910 65 213 0.0 0.0 0.00 0.00 0.00 54 1013.6
20260508005344 67 214 0.0 0.0 0.00 0.00 0.00 52 1013.6
20260508004818 69 213 0.0 1.0 0.00 0.00 0.00 50 1013.6
20260508004315 70 213 0.0 1.0 0.00 0.00 0.00 50 1013.6
20260508003748 71 213 0.0 1.0 0.00 0.00 0.00 50 1013.6
20260508003246 71 214 0.0 1.0 0.00 0.00 0.00 48 1013.6
20260508003239 72 214 0.0 1.0 0.00 0.00 0.00 48 1013.7
20260508002244 72 214 0.0 1.0 0.00 0.00 0.00 48 1013.8
20260508001743 72 213 0.0 1.0 0.00 0.00 0.00 48 1013.7
20260508001243 72 213 0.0 1.0 0.00 0.00 0.00 48 1013.8
20260508000741 72 213 0.0 1.0 0.00 0.00 0.00 48 1013.8
20260508000234 72 213 0.0 1.0 0.00 0.00 0.00 48 1013.8
20260507235731 72 214 0.0 1.0 0.00 0.00 0.00 50 1013.9
20260507235223 72 217 0.0 1.0 0.00 0.00 0.00 48 1013.8
20260507235204 72 217 0.0 1.0 0.00 0.00 0.00 47 1013.8
20260507234200 72 211 0.0 1.0 0.00 0.00 0.00 47 1013.8
20260507234136 73 218 0.0 1.0 0.00 0.00 0.00 48 1013.8
20260507233132 72 212 0.0 2.0 0.00 0.00 0.00 46 1013.8
20260507232629 72 212 0.0 2.0 0.00 0.00 0.00 48 1013.9
20260507232616 72 212 0.0 3.0 0.00 0.00 0.00 50 1013.8
20260507231628 72 199 0.0 3.0 0.00 0.00 0.00 51 1013.9
20260507231130 71 179 0.0 6.0 0.00 0.00 0.00 50 1013.8
20260507230603 71 207 1.0 6.0 0.00 0.00 0.00 50 1013.9
20260507230101 70 239 2.0 7.0 0.00 0.00 0.00 47 1013.9
20260507225558 70 250 3.0 7.0 0.00 0.00 0.00 48 1014.0
20260507225058 71 234 3.0 8.0 0.00 0.00 0.00 49 1014.1
20260507224530 72 261 2.0 8.0 0.00 0.00 0.00 46 1014.1
20260507224510 72 216 1.0 6.0 0.00 0.00 0.00 48 1014.2
20260507223501 72 214 1.0 6.0 0.00 0.00 0.00 47 1014.2
20260507223447 72 220 0.0 3.0 0.00 0.00 0.00 51 1014.2
20260507222456 71 202 1.0 4.0 0.00 0.00 0.00 49 1014.3
20260507222444 71 244 1.0 4.0 0.00 0.00 0.00 49 1014.3
20260507221425 70 196 1.0 5.0 0.00 0.00 0.00 50 1014.5
20260507220923 70 255 2.0 7.0 0.00 0.00 0.00 48 1014.5
20260507220836 71 267 1.0 7.0 0.00 0.00 0.00 45 1014.5
20260507215853 71 200 0.0 5.0 0.00 0.00 0.00 49 1014.5
20260507215335 71 205 1.0 5.0 0.00 0.00 0.00 50 1014.6
20260507214832 71 129 2.0 9.0 0.00 0.00 0.00 49 1014.5
20260507214307 70 213 2.0 9.0 0.00 0.00 0.00 51 1014.5
20260507213750 70 250 1.0 6.0 0.00 0.00 0.00 48 1014.6
20260507213247 70 124 1.0 3.0 0.00 0.00 0.00 49 1014.6
20260507212738 70 201 2.0 9.0 0.00 0.00 0.00 52 1014.7
20260507212237 70 218 2.0 9.0 0.00 0.00 0.00 48 1014.7
20260507211735 71 129 1.0 4.0 0.00 0.00 0.00 50 1014.8
20260507211706 70 217 1.0 4.0 0.00 0.00 0.00 50 1014.8